FW2320 Weather Reports


time (UTC)temp
F
wind
direction
speed
knots
gust
knots
rain 1hr
in
rain 24hr
in
rain mn
in
humidity
%
barometer
mb
20260506003111 80 9 0.9 6.1 0.00 0.00 0.00 33 1012.7
20260506001534 81 354 0.9 7.0 0.00 0.00 0.00 33 1012.7
20260506000037 80 351 0.9 6.1 0.00 0.00 0.00 33 1012.8
20260505234534 81 316 2.6 7.0 0.00 0.00 0.00 32 1012.9
20260505231536 82 343 0.9 8.7 0.00 0.00 0.00 33 1013.1
20260505230038 82 14 1.7 6.1 0.00 0.00 0.00 33 1013.2
20260505224537 81 356 0.0 6.1 0.00 0.00 0.00 33 1013.2
20260505223109 81 355 1.7 7.0 0.00 0.00 0.00 34 1013.4
20260505221531 80 351 0.9 6.1 0.00 0.00 0.00 34 1013.5
20260505220030 80 340 1.7 8.7 0.00 0.00 0.00 34 1013.6
20260505214612 81 53 0.9 6.1 0.00 0.00 0.00 35 1013.7
20260505213029 80 356 0.9 7.8 0.00 0.00 0.00 37 1013.7
20260505211530 80 2 1.7 7.8 0.00 0.00 0.00 39 1013.9
20260505204536 79 29 1.7 5.2 0.00 0.00 0.00 42 1014.1
20260505203038 78 9 0.9 6.1 0.00 0.00 0.00 43 1014.2
20260505201534 77 359 1.7 6.1 0.00 0.00 0.00 43 1014.2
20260505200037 77 13 1.7 7.0 0.00 0.00 0.00 45 1014.2
20260505193035 75 359 1.7 8.7 0.00 0.00 0.00 49 1014.4
20260505191537 74 11 0.9 5.2 0.00 0.00 0.00 51 1014.4
20260505190035 73 14 0.9 6.1 0.00 0.00 0.00 51 1014.6
20260505184535 72 9 1.7 5.2 0.00 0.00 0.00 53 1014.6
20260505181535 70 351 0.9 7.8 0.00 0.00 0.00 57 1014.6
20260505180032 68 317 0.9 6.1 0.00 0.00 0.00 58 1014.6
20260505174610 68 324 0.9 6.1 0.00 0.00 0.00 60 1014.6
20260505173031 67 13 0.9 6.1 0.00 0.00 0.00 63 1014.5
20260505171609 65 360 0.9 5.2 0.00 0.00 0.00 64 1014.5
20260505170037 65 46 0.9 6.1 0.00 0.00 0.00 65 1014.5
20260505164535 64 60 1.7 6.1 0.00 0.00 0.00 67 1014.5
20260505163035 63 38 0.9 6.1 0.00 0.00 0.00 70 1014.5
20260505153143 59 14 0.0 2.6 0.00 0.00 0.00 76 1014.2
20260505151536 59 3 0.0 2.6 0.00 0.00 0.00 79 1014.2
20260505124535 49 302 0.0 1.7 0.00 0.00 0.00 80 1012.7
20260505121532 50 315 0.0 2.6 0.00 0.00 0.00 80 1012.6
20260505120045 50 315 0.0 0.9 0.00 0.00 0.00 79 1012.5
20260505120036 51 313 0.0 2.6 0.00 0.00 0.00 79 1012.4
20260505110110 52 292 0.0 0.9 0.00 0.00 0.00 77 1012.1
20260505101536 52 292 0.0 1.7 0.00 0.00 0.00 76 1011.9
20260505094535 54 292 0.0 0.0 0.00 0.00 0.00 74 1011.9
20260505093036 54 290 0.0 1.7 0.00 0.00 0.00 72 1011.8
20260505091535 55 270 0.0 0.0 0.00 0.00 0.00 72 1011.7
20260505090035 55 270 0.0 1.7 0.00 0.00 0.00 70 1011.6
20260505084532 56 290 0.0 3.5 0.00 0.00 0.00 69 1011.7
20260505081536 58 321 0.0 1.7 0.00 0.00 0.00 65 1011.7
20260505080110 60 300 0.0 4.3 0.00 0.00 0.00 63 1011.7
20260505073036 61 310 0.9 4.3 0.00 0.00 0.00 62 1011.5
20260505071608 62 327 0.9 4.3 0.00 0.00 0.00 59 1011.4
20260505070111 63 304 0.0 7.0 0.00 0.00 0.00 59 1011.3
20260505064534 64 248 2.6 9.6 0.00 0.00 0.00 58 1011.1
20260505060040 64 257 1.7 10.4 0.00 0.00 0.00 54 1011.1
20260505053036 65 245 4.3 12.2 0.00 0.00 0.00 52 1010.8
20260505051539 65 253 3.5 11.3 0.00 0.00 0.00 50 1010.7
20260505050108 66 241 5.2 14.8 0.00 0.00 0.00 49 1010.6
20260505041537 66 237 5.2 12.2 0.00 0.00 0.00 45 1010.3
20260505040050 66 236 5.2 13.9 0.00 0.00 0.00 44 1010.1
20260505034534 67 240 4.3 15.6 0.00 0.00 0.00 43 1010.0
20260505033036 68 257 2.6 8.7 0.00 0.00 0.00 41 1009.8
20260505023036 71 241 5.2 13.0 0.00 0.00 0.00 35 1009.3
20260505021530 73 245 4.3 13.0 0.00 0.00 0.00 32 1009.2
20260505020110 74 239 4.3 13.0 0.00 0.00 0.00 31 1009.1
20260505014536 75 235 6.1 20.0 0.00 0.00 0.00 30 1009.2
20260505010038 78 233 5.2 12.2 0.00 0.00 0.00 29 1009.3
20260505004535 80 232 5.2 13.9 0.00 0.00 0.00 28 1009.3